RH
101 104 104 102 100 100 101 104 104 104 105 105 103 101 98 96 93 88 85 85 84 82 81 79 77 76 76 76 75 74 74 74 74 74 74 74 76 78 79 80 80 79
94 96 100 105 106 104 101 99 98 99 102 105 107 106 105 104 103 100 97 94 93 93 93 91 90 88 88 88 88 87 87 87 87 87 85 83 83 83 83 84 83 80
95 93 95 99 102 103 102 99 96 93 93 96 100 103 104 104 103 104 105 102 99 100 101 100 101 100 99 99 100 100 102 103 103 102 98 95 94 93 93 92 89 86
102 100 98 98 98 99 99 99 100 99 98 96 97 98 99 100 101 102 105 106 103 100 99 98 99 101 102 103 103 104 107 110 112 112 109 106 104 102 99 97 94 93
106 107 108 107 105 104 101 98 97 99 101 102 99 97 94 94 95 96 99 102 102 100 99 96 95 95 96 98 99 100 103 106 109 110 108 107 107 106 103 100 98 98
77 83 89 93 97 102 105 104 102 101 102 102 100 96 92 90 89 89 91 92 91 91 91 90 91 91 92 92 93 93 95 97 100 103 104 104 105 105 105 103 102 102
39 43 48 53 58 66 74 81 88 94 97 103 107 103 100 98 94 90 90 89 85 81 78 76 77 79 81 83 85 87 88 88 89 91 95 98 101 103 103 103 103 103
28 28 29 31 32 35 39 43 50 57 64 75 87 94 100 107 106 102 101 99 95 90 84 79 75 73 71 70 71 74 77 79 80 80 82 86 89 93 95 96 96 97
29 29 29 29 29 29 30 30 31 33 35 39 46 54 65 78 89 96 102 106 107 107 105 100 94 87 82 76 71 67 66 67 69 69 70 73 76 80 84 86 86 87
27 28 29 30 31 31 31 31 30 30 30 30 31 33 35 40 47 57 68 78 88 97 105 109 108 102 97 92 86 79 74 71 68 65 64 64 66 69 72 74 75 77
25 24 25 26 27 29 30 31 31 31 31 31 31 31 32 32 33 35 38 44 50 58 67 77 84 86 87 86 84 82 81 80 79 77 73 69 68 67 67 66 66 67
26 25 25 25 25 26 27 27 28 29 30 31 31 31 31 32 32 33 34 35 37 39 42 46 51 55 59 61 62 63 64 66 69 71 71 70 70 69 68 67 64 64
31 30 29 28 27 26 26 26 26 27 27 28 29 30 31 32 32 33 34 34 36 37 38 39 41 42 44 46 47 48 48 49 50 52 52 53 55 56 58 59 60 60
36 35 34 32 31 29 28 27 26 26 26 26 27 28 28 30 31 32 33 34 35 36 37 38 39 40 41 42 42 42 43 43 43 44 44 43 43 44 45 47 49 50
32 31 31 30 30 29 28 27 26 25 24 24 24 24 25 26 27 29 31 32 33 34 36 37 38 39 40 41 41 41 41 41 41 42 42 42 42 42 42 42 43 44
24 24 24 23 23 23 23 23 23 23 23 22 21 21 21 21 22 24 25 27 29 30 31 32 34 35 37 38 40 41 41 41 41 41 40 40 40 39 40 40 40 40
23 21 21 20 19 19 19 19 19 19 20 20 19 19 19 18 18 19 20 21 23 25 26 28 29 30 32 34 35 37 38 39 40 41 41 40 39 39 39 39 39 39
21 20 19 18 17 16 16 16 16 16 16 16 17 17 17 17 17 18 18 19 20 21 22 23 24 25 26 27 28 30 31 32 34 36 37 37 37 37 37 38 39 39
15 15 15 15 15 15 14 14 13 13 13 13 14 14 14 15 15 15 15 16 16 17 17 17 18 18 19 19 20 21 22 23 25 26 28 29 29 30 31 31 32 33
12 12 12 12 13 13 13 13 12 12 11 11 11 11 11 11 11 12 12 12 12 13 13 13 13 13 14 14 15 15 16 17 18 19 20 20 21 22 23 24 25 25
11 12 12 12 12 12 12 12 12 12 11 11 10 10 9 9 9 9 9 10 11 11 11 12 12 12 13 13 13 14 14 15 16 16 16 16 16 16 17 17 17 17
11 11 12 12 12 12 12 12 12 11 11 10 10 9 9 9 9 9 9 9 10 10 11 12 12 13 14 14 14 14 13 14 14 13 12 12 11 11 11 11 11 10
10 10 11 11 11 11 11 11 11 10 10 10 10 9 9 9 9 9 10 11 11 12 13 13 12 12 12 12 11 10 10 10 10 9 9 9 9 8 8 8 8 8
9 9 9 9 9 10 10 10 10 10 10 10 10 10 10 10 11 12 13 13 14 14 13 11 10 9 8 8 7 7 8 8 8 8 8 7 8 7 7 8 7 7
8 8 9 9 9 9 9 9 9 10 10 10 10 11 11 12 13 13 13 13 12 11 9 8 8 7 7 7 7 7 7 6 7 7 6 6 6 6 7 7 6 6
8 8 9 9 9 9 9 10 10 10 11 11 12 13 13 14 14 13 11 10 9 8 8 7 7 7 7 7 6 6 6 6 6 6 6 6 6 6 6 6 6 6
Wind_Speed
88 89 89 89 89 89 89 90 89 89 90 91 91 92 92 93 93 94 93 93 93 94 94 95 95 95 96 96 97 97 98 98 99 100 101 101 101 102 102 103 104 104
92 92 93 93 94 94 94 94 94 93 93 94 94 95 96 96 97 97 97 96 96 96 96 97 97 97 97 98 98 98 98 98 99 100 102 102 103 104 104 105 106 107
95 96 96 97 97 98 98 98 99 98 98 98 98 98 99 99 100 100 101 100 100 100 100 101 101 101 101 101 101 101 100 100 101 102 103 103 104 105 106 107 108 109
98 98 99 100 100 101 102 102 102 102 102 102 103 102 102 103 103 103 104 104 105 105 105 105 105 105 106 106 105 105 104 104 104 105 106 105 106 107 107 108 109 109
99 100 101 102 102 103 104 105 106 106 106 107 107 107 107 107 107 107 108 108 109 109 109 109 109 109 110 110 110 109 109 108 109 110 110 109 109 110 110 110 110 110
100 101 102 103 104 105 106 107 108 108 109 110 111 112 112 112 112 112 113 113 113 114 114 114 114 114 114 114 114 113 113 113 113 113 113 113 113 113 113 113 113 113
100 101 102 103 104 105 106 107 108 109 110 111 113 114 115 116 116 116 117 118 118 119 118 118 118 118 118 118 118 118 118 117 117 117 117 117 117 117 117 117 117 117
100 100 101 102 103 104 105 107 108 109 110 111 112 114 115 117 118 120 120 121 122 123 123 122 122 122 122 122 121 121 121 121 121 121 121 121 120 120 120 121 121 120
100 100 101 102 102 104 105 106 107 108 110 110 111 112 114 115 117 119 121 123 124 125 126 126 126 126 125 125 125 124 124 124 125 125 125 124 124 124 124 125 125 124
100 100 101 101 102 104 105 106 107 108 109 110 111 112 113 114 115 117 119 121 123 125 127 128 129 129 129 129 128 128 128 127 127 127 127 127 127 127 127 128 128 128
101 101 101 102 103 104 105 106 107 107 108 109 110 111 112 113 115 116 117 119 121 122 124 126 128 129 130 130 130 130 130 130 130 130 130 130 129 130 130 130 131 130
103 103 103 103 103 104 105 106 107 108 108 109 110 111 112 113 114 115 116 118 119 121 123 124 126 127 128 129 130 130 130 130 130 131 131 131 131 131 132 132 132 132
104 104 104 104 104 105 105 106 107 108 109 110 110 111 112 112 113 114 115 116 118 119 121 123 124 126 127 128 129 130 130 130 130 131 131 131 131 131 132 132 132 132
104 105 105 105 105 105 105 105 106 106 107 109 110 111 112 113 114 114 115 116 117 118 119 121 123 124 126 127 129 130 130 131 131 131 131 131 131 131 131 131 132 132
103 104 104 105 105 106 106 106 105 105 105 106 107 109 110 112 113 114 115 116 117 118 119 121 122 123 125 126 127 129 130 131 131 132 132 132 132 132 132 132 132 133
102 102 103 103 104 104 105 105 105 105 105 105 105 106 107 109 110 112 113 115 117 118 119 121 122 123 125 126 127 128 129 130 131 132 132 133 133 133 133 134 134 134
102 102 102 102 102 102 103 103 104 104 104 105 105 105 105 106 107 109 110 112 114 116 118 119 121 122 124 125 126 127 128 129 130 131 132 133 133 133 134 134 135 135
102 102 102 102 101 101 101 101 102 102 103 104 104 105 105 106 107 107 108 110 111 113 114 116 118 119 120 122 123 124 125 126 127 129 130 131 132 133 133 134 134 135
101 101 101 101 101 101 101 101 101 101 101 102 103 103 104 105 106 106 107 108 109 110 111 112 113 114 115 117 118 119 120 121 122 124 126 127 128 129 130 131 132 133
99 99 99 99 99 99 100 100 100 100 100 100 100 101 101 102 102 103 104 104 105 106 107 108 108 109 110 112 113 114 114 115 116 118 120 121 123 124 125 127 128 129
95 96 96 96 97 97 97 98 98 98 98 98 99 98 98 99 99 99 100 100 101 102 103 104 105 105 107 107 108 109 110 110 112 113 115 116 117 118 119 121 122 123
91 91 92 93 94 94 94 95 95 96 96 96 96 96 96 96 96 96 96 97 97 98 99 100 101 102 103 104 105 106 106 107 108 109 110 111 112 112 113 114 115 116
86 87 87 88 89 90 90 91 91 92 92 93 93 93 93 93 93 93 93 94 95 95 96 98 98 99 100 100 101 102 102 102 103 104 105 106 106 107 107 108 108 109
82 82 83 84 85 86 86 86 87 88 88 88 89 89 89 89 89 89 90 90 91 92 93 94 95 95 95 95 95 96 96 96 97 99 100 100 100 101 102 102 104 104
78 79 80 80 81 81 81 82 82 83 83 84 84 85 85 85 86 86 86 87 88 89 90 91 91 91 91 91 92 92 92 92 93 94 95 95 95 96 97 99 100 100
74 75 76 77 78 78 78 78 79 80 80 81 81 81 82 82 82 83 83 84 85 86 87 87 88 88 89 89 89 89 90 90 90 91 91 91 92 93 95 95 96 97
Wind_Direction
266 266 266 266 265 264 264 264 264 265 265 265 265 265 265 265 265 265 265 264 264 263 263 263 262 262 262 262 262 262 262 263 263 263 263 263 263 263 263 263 263 263
263 264 264 265 265 264 264 263 263 262 263 263 264 264 265 265 265 265 264 264 264 263 263 263 263 262 262 262 262 262 262 263 263 263 263 263 263 263 263 263 263 263
264 263 263 263 263 263 263 263 263 262 261 261 261 261 262 263 263 264 264 264 264 263 263 262 262 262 262 262 262 262 262 262 262 262 262 262 262 262 262 262 263 263
266 265 264 263 262 262 262 262 262 262 262 262 261 261 261 261 261 262 262 263 263 263 262 262 262 261 261 261 261 261 261 261 261 261 261 261 262 262 262 262 262 263
266 265 265 264 263 262 261 261 260 260 261 261 262 262 261 261 261 261 261 261 261 261 261 261 261 261 261 261 261 260 260 260 260 261 261 261 261 261 262 262 262 262
266 265 265 264 264 263 262 261 261 260 259 259 259 260 260 260 260 260 260 260 260 260 260 260 260 260 260 260 260 260 260 260 260 260 260 260 261 261 261 261 261 262
268 267 266 265 265 264 263 263 262 261 260 259 259 258 258 259 259 259 259 260 260 260 260 260 260 260 260 260 260 260 260 260 260 260 260 260 260 260 261 261 261 261
269 268 267 266 266 265 264 264 263 262 262 261 260 260 259 259 259 259 259 259 260 260 261 261 260 260 260 260 260 260 260 260 260 260 260 260 260 260 261 261 261 261
270 269 268 268 267 266 265 264 264 263 263 262 262 261 261 260 260 260 260 260 261 262 262 263 263 263 263 262 262 262 262 261 261 261 261 261 261 261 261 261 261 261
270 269 269 268 267 267 266 266 265 264 264 263 262 262 261 261 261 261 261 261 261 262 262 263 264 264 264 264 264 264 264 264 264 263 263 263 262 262 262 262 262 262
272 271 270 269 268 267 266 266 265 265 264 264 263 263 262 262 261 261 261 261 261 261 262 262 263 264 264 264 265 265 265 265 265 265 265 265 264 264 264 263 263 263
273 272 271 270 269 268 268 267 266 266 265 264 264 264 263 263 262 262 261 261 261 261 261 262 262 263 263 264 264 264 264 264 264 265 265 265 265 265 265 265 265 265
273 273 272 272 271 270 269 268 267 267 266 265 265 264 264 264 263 263 263 262 262 262 262 262 262 262 263 263 263 264 264 264 264 264 264 264 264 264 264 265 265 265
272 272 272 272 272 271 271 270 269 268 267 266 265 265 264 264 264 264 264 264 263 263 263 263 263 263 263 263 263 264 264 264 264 264 264 264 264 264 264 264 264 265
272 272 272 272 272 271 271 271 270 269 268 267 266 265 264 264 264 264 264 264 264 264 264 264 264 264 264 264 264 264 264 264 264 265 265 265 265 265 265 265 264 264
273 273 272 272 272 271 271 271 270 270 269 268 267 266 265 264 264 264 263 263 263 264 264 264 264 264 264 264 264 264 264 264 265 265 265 265 265 265 265 265 265 265
274 274 274 273 272 272 271 271 271 270 270 269 269 268 267 266 265 265 264 264 263 263 263 264 264 264 264 264 264 264 264 264 264 265 265 265 265 265 265 265 265 265
275 275 275 274 274 273 272 272 271 271 270 270 270 269 269 268 267 267 266 266 265 265 264 264 264 264 264 263 263 263 263 263 264 264 264 264 265 265 265 265 265 265
275 275 275 275 274 274 273 273 272 272 271 271 270 270 269 269 269 268 268 267 267 267 266 266 265 265 264 264 264 263 263 263 263 263 263 263 263 264 264 264 264 264
274 274 274 274 274 274 273 273 273 273 272 272 271 271 270 270 270 269 269 269 268 268 267 267 266 266 266 265 265 264 264 264 263 263 263 263 263 263 263 263 264 264
274 274 274 273 273 273 273 273 273 273 273 273 273 272 272 272 271 271 270 270 269 269 268 268 267 267 266 266 266 265 265 265 265 264 264 264 264 263 263 263 264 264
274 273 273 273 273 273 273 273 273 273 273 273 273 273 272 272 272 271 271 270 270 269 269 268 268 267 267 267 267 266 266 266 266 266 266 265 265 265 265 265 264 264
273 272 272 272 272 271 272 272 272 272 272 272 272 272 272 271 271 271 270 270 270 270 269 269 268 268 268 268 268 268 268 268 267 267 267 267 267 266 266 266 265 265
273 273 272 272 271 271 271 271 271 271 271 271 271 271 271 271 271 271 270 270 270 270 270 270 270 270 269 269 269 269 268 268 268 267 267 267 267 267 267 267 266 266
274 273 273 273 272 272 272 272 272 271 271 271 271 271 271 271 271 271 271 271 271 270 270 271 271 271 271 270 270 269 269 269 268 268 268 268 268 268 267 267 267 266
275 274 274 274 274 273 273 273 273 272 272 272 272 272 272 273 273 273 272 272 272 272 271 271 271 271 271 271 270 270 270 270 270 270 270 269 269 269 268 268 268 267